Terminal Aerodrome Forecast
Issued by NWS Grand Rapids, MI

Home | Current Version | Previous Version | Text Only | Print | Product List | Glossary On
Versions: 1 2 3 4 5 6 7 8 9 10 11 12 13 14
000
FTUS43 KGRR 240223 AAB
TAFGRR
TAF AMD
KGRR 240223Z 2402/2424 17011KT 5SM -SHRA BR VCTS OVC035CB
     FM241000 20012KT 5SM -RA BR OVC030
     FM241400 22013G22KT P6SM OVC035=

USA.gov is the U.S. government's official web portal to all federal, state and local government web resources and services.